User: anonymous   Login
Location: Sunny Point
(33.0946°N, 85.0574°W)
Time: 09:36:19
(UTC+00:00)
Language:

AO-7 - Orbit

View from above orbital plane
View from above orbital plane
View from above satellite
View from above satellite

Ground track
Ground track

The orbit data is extracted from the following two-line orbital elements,

1  7530U 74089B   24200.98894723 -.00000017  00000-0  18187-3 0  9998
2  7530 101.9788 195.9355 0012439  25.3216  42.7156 12.53677072273261
Epoch (UTC): 18 July 2024 23:44:05
Eccentricity: 0.0012439
inclination: 101.9788°
perigee height: 1439 km
apogee height: 1459 km
right ascension of ascending node: 195.9355°
argument of perigee: 25.3216°
revolutions per day: 12.53677072
mean anomaly at epoch: 42.7156°
orbit number at epoch: 27326

The dashed part of the orbit path shows where the satellite is in the earth's shadow,  

DLR